| time (UTC) | temp C | wind direction | speed KPH | gust KPH | rain 1hr cm | rain 24hr cm | rain mn cm | humidity % | barometer mb |
| 20260506161008 | 11 | 203 | 4.8 | 8.0 | 0.00 | 0.03 | 0.03 | 90 | 1019.7 |
| 20260506160507 | 11 | 261 | 4.8 | 8.0 | 0.00 | 0.03 | 0.03 | 91 | 1019.8 |
| 20260506160017 | 11 | 240 | 4.8 | 8.0 | 0.00 | 0.03 | 0.03 | 91 | 1019.9 |
| 20260506155508 | 10 | 231 | 4.8 | 8.0 | 0.00 | 0.03 | 0.03 | 92 | 1020.0 |
| 20260506155009 | 10 | 219 | 4.8 | 6.4 | 0.00 | 0.03 | 0.03 | 92 | 1020.1 |
| 20260506154508 | 10 | 259 | 3.2 | 6.4 | 0.00 | 0.03 | 0.03 | 92 | 1020.1 |
| 20260506154008 | 10 | 265 | 3.2 | 8.0 | 0.00 | 0.03 | 0.03 | 93 | 1020.0 |
| 20260506153506 | 10 | 266 | 3.2 | 8.0 | 0.00 | 0.03 | 0.03 | 93 | 1020.0 |
| 20260506153014 | 10 | 279 | 3.2 | 9.7 | 0.00 | 0.03 | 0.03 | 93 | 1020.0 |
| 20260506152506 | 10 | 275 | 3.2 | 9.7 | 0.00 | 0.03 | 0.03 | 93 | 1019.8 |
| 20260506152008 | 10 | 234 | 6.4 | 9.7 | 0.00 | 0.03 | 0.03 | 93 | 1019.6 |
| 20260506151520 | 10 | 248 | 4.8 | 8.0 | 0.00 | 0.03 | 0.03 | 93 | 1019.5 |
| 20260506151009 | 10 | 248 | 4.8 | 8.0 | 0.00 | 0.03 | 0.03 | 93 | 1019.6 |
| 20260506150509 | 10 | 248 | 3.2 | 8.0 | 0.00 | 0.03 | 0.03 | 93 | 1019.6 |
| 20260506150020 | 10 | 248 | 4.8 | 11.3 | 0.00 | 0.03 | 0.03 | 93 | 1019.7 |
| 20260506145508 | 10 | 273 | 4.8 | 11.3 | 0.00 | 0.03 | 0.03 | 93 | 1019.6 |
| 20260506145009 | 10 | 219 | 3.2 | 9.7 | 0.00 | 0.03 | 0.03 | 93 | 1019.7 |
| 20260506144523 | 10 | 246 | 4.8 | 9.7 | 0.00 | 0.03 | 0.03 | 93 | 1019.7 |
| 20260506144008 | 10 | 251 | 3.2 | 9.7 | 0.00 | 0.03 | 0.03 | 93 | 1019.7 |
| 20260506143505 | 10 | 250 | 3.2 | 6.4 | 0.00 | 0.03 | 0.03 | 92 | 1019.6 |
| 20260506143022 | 10 | 269 | 3.2 | 6.4 | 0.00 | 0.03 | 0.03 | 92 | 1019.5 |
| 20260506142506 | 10 | 272 | 3.2 | 8.0 | 0.00 | 0.03 | 0.03 | 92 | 1019.5 |
| 20260506142007 | 10 | 234 | 4.8 | 8.0 | 0.00 | 0.03 | 0.03 | 92 | 1019.3 |
| 20260506141517 | 10 | 227 | 4.8 | 6.4 | 0.00 | 0.03 | 0.03 | 92 | 1019.4 |
| 20260506141009 | 10 | 249 | 3.2 | 6.4 | 0.00 | 0.03 | 0.03 | 92 | 1019.6 |
| 20260506140507 | 10 | 238 | 3.2 | 9.7 | 0.00 | 0.03 | 0.03 | 92 | 1019.5 |
| 20260506140022 | 10 | 282 | 3.2 | 11.3 | 0.00 | 0.03 | 0.03 | 91 | 1019.6 |
| 20260506135514 | 11 | 274 | 3.2 | 11.3 | 0.00 | 0.03 | 0.03 | 91 | 1019.6 |
| 20260506135008 | 11 | 236 | 3.2 | 9.7 | 0.00 | 0.03 | 0.03 | 91 | 1019.5 |
| 20260506134523 | 10 | 223 | 4.8 | 12.9 | 0.00 | 0.03 | 0.03 | 91 | 1019.2 |
| 20260506134009 | 10 | 235 | 4.8 | 12.9 | 0.00 | 0.03 | 0.03 | 91 | 1019.4 |
| 20260506133510 | 11 | 259 | 6.4 | 11.3 | 0.00 | 0.03 | 0.03 | 90 | 1019.3 |
| 20260506133024 | 11 | 216 | 4.8 | 9.7 | 0.00 | 0.03 | 0.03 | 90 | 1019.3 |
| 20260506132510 | 11 | 223 | 4.8 | 11.3 | 0.00 | 0.03 | 0.03 | 90 | 1019.3 |
| 20260506132010 | 11 | 263 | 6.4 | 11.3 | 0.00 | 0.03 | 0.03 | 89 | 1019.1 |
| 20260506131517 | 11 | 272 | 4.8 | 9.7 | 0.00 | 0.03 | 0.03 | 89 | 1019.1 |
| 20260506131010 | 11 | 230 | 4.8 | 9.7 | 0.00 | 0.03 | 0.03 | 89 | 1018.8 |
| 20260506130506 | 11 | 238 | 4.8 | 9.7 | 0.00 | 0.03 | 0.03 | 88 | 1018.9 |
| 20260506130021 | 11 | 213 | 4.8 | 9.7 | 0.00 | 0.03 | 0.03 | 88 | 1018.8 |
| 20260506125510 | 11 | 221 | 4.8 | 8.0 | 0.00 | 0.03 | 0.03 | 88 | 1018.7 |
| 20260506125010 | 11 | 217 | 3.2 | 8.0 | 0.00 | 0.03 | 0.03 | 88 | 1018.7 |
| 20260506124524 | 11 | 270 | 4.8 | 8.0 | 0.00 | 0.03 | 0.03 | 88 | 1018.7 |
| 20260506124010 | 11 | 234 | 3.2 | 9.7 | 0.00 | 0.03 | 0.03 | 87 | 1018.7 |
| 20260506123510 | 11 | 267 | 4.8 | 9.7 | 0.00 | 0.03 | 0.03 | 87 | 1018.7 |
| 20260506123028 | 11 | 238 | 1.6 | 4.8 | 0.00 | 0.03 | 0.03 | 87 | 1018.6 |
| 20260506122509 | 11 | 234 | 3.2 | 4.8 | 0.00 | 0.03 | 0.03 | 87 | 1018.6 |
| 20260506122012 | 11 | 240 | 1.6 | 4.8 | 0.00 | 0.03 | 0.03 | 87 | 1018.6 |
| 20260506121521 | 11 | 227 | 1.6 | 4.8 | 0.00 | 0.03 | 0.03 | 87 | 1018.6 |
| 20260506121007 | 11 | 242 | 3.2 | 4.8 | 0.00 | 0.03 | 0.03 | 87 | 1018.6 |
| 20260506120507 | 11 | 240 | 1.6 | 4.8 | 0.00 | 0.03 | 0.03 | 87 | 1018.7 |
| 20260506120023 | 11 | 245 | 3.2 | 6.4 | 0.00 | 0.03 | 0.03 | 87 | 1018.6 |
| 20260506115511 | 11 | 240 | 3.2 | 6.4 | 0.00 | 0.03 | 0.03 | 87 | 1018.5 |
| 20260506115009 | 11 | 208 | 3.2 | 6.4 | 0.00 | 0.03 | 0.03 | 87 | 1018.5 |
| 20260506114521 | 11 | 220 | 3.2 | 6.4 | 0.00 | 0.03 | 0.03 | 88 | 1018.3 |
| 20260506114011 | 11 | 190 | 3.2 | 6.4 | 0.00 | 0.03 | 0.03 | 87 | 1018.3 |
| 20260506113509 | 11 | 239 | 3.2 | 6.4 | 0.00 | 0.03 | 0.03 | 88 | 1018.3 |
| 20260506113030 | 11 | 221 | 3.2 | 6.4 | 0.00 | 0.03 | 0.03 | 87 | 1018.4 |
| 20260506112510 | 11 | 243 | 3.2 | 8.0 | 0.00 | 0.03 | 0.03 | 87 | 1018.5 |
| 20260506112011 | 11 | 218 | 3.2 | 11.3 | 0.00 | 0.03 | 0.03 | 87 | 1018.5 |
| 20260506111512 | 11 | 231 | 6.4 | 11.3 | 0.00 | 0.03 | 0.03 | 87 | 1018.5 |
| 20260506111010 | 11 | 274 | 6.4 | 9.7 | 0.00 | 0.03 | 0.03 | 87 | 1018.4 |
| 20260506110507 | 11 | 238 | 4.8 | 9.7 | 0.00 | 0.03 | 0.03 | 86 | 1018.3 |
| 20260506110017 | 11 | 244 | 4.8 | 11.3 | 0.00 | 0.03 | 0.03 | 86 | 1018.3 |
| 20260506105509 | 11 | 225 | 4.8 | 12.9 | 0.00 | 0.03 | 0.03 | 86 | 1018.3 |
| 20260506105009 | 11 | 213 | 6.4 | 12.9 | 0.00 | 0.03 | 0.03 | 86 | 1018.3 |
| 20260506104520 | 11 | 234 | 6.4 | 11.3 | 0.00 | 0.03 | 0.03 | 86 | 1018.4 |
| 20260506104009 | 11 | 227 | 4.8 | 9.7 | 0.00 | 0.03 | 0.03 | 85 | 1018.3 |
| 20260506103511 | 11 | 234 | 4.8 | 9.7 | 0.00 | 0.03 | 0.03 | 85 | 1018.2 |
| 20260506103026 | 11 | 254 | 4.8 | 9.7 | 0.00 | 0.03 | 0.03 | 85 | 1018.2 |
| 20260506102509 | 11 | 224 | 4.8 | 9.7 | 0.00 | 0.03 | 0.03 | 85 | 1018.1 |
| 20260506102006 | 11 | 235 | 4.8 | 9.7 | 0.00 | 0.03 | 0.03 | 85 | 1018.1 |
| 20260506101507 | 11 | 244 | 3.2 | 9.7 | 0.00 | 0.03 | 0.03 | 85 | 1018.0 |
| 20260506101007 | 11 | 261 | 4.8 | 8.0 | 0.00 | 0.03 | 0.03 | 85 | 1017.9 |
| 20260506100505 | 11 | 245 | 3.2 | 6.4 | 0.00 | 0.03 | 0.03 | 85 | 1017.9 |
| 20260506100014 | 11 | 231 | 1.6 | 6.4 | 0.00 | 0.03 | 0.03 | 85 | 1017.8 |
| 20260506095507 | 11 | 238 | 4.8 | 6.4 | 0.00 | 0.03 | 0.03 | 85 | 1017.8 |
| 20260506095010 | 11 | 247 | 3.2 | 6.4 | 0.00 | 0.03 | 0.03 | 85 | 1017.7 |
| 20260506094521 | 11 | 238 | 3.2 | 6.4 | 0.00 | 0.03 | 0.03 | 85 | 1017.7 |
| 20260506094011 | 11 | 240 | 1.6 | 3.2 | 0.00 | 0.03 | 0.03 | 85 | 1017.7 |
| 20260506093511 | 11 | 226 | 1.6 | 3.2 | 0.00 | 0.03 | 0.03 | 85 | 1017.8 |
| 20260506093024 | 11 | 268 | 1.6 | 4.8 | 0.00 | 0.03 | 0.03 | 85 | 1017.7 |
| 20260506092507 | 11 | 229 | 1.6 | 6.4 | 0.00 | 0.03 | 0.03 | 85 | 1017.7 |
| 20260506092011 | 11 | 241 | 1.6 | 6.4 | 0.00 | 0.03 | 0.03 | 85 | 1017.7 |
| 20260506091524 | 11 | 253 | 3.2 | 8.0 | 0.00 | 0.03 | 0.03 | 85 | 1017.7 |
| 20260506091006 | 11 | 246 | 3.2 | 8.0 | 0.00 | 0.03 | 0.03 | 85 | 1017.6 |
| 20260506090505 | 11 | 240 | 3.2 | 12.9 | 0.00 | 0.03 | 0.03 | 85 | 1017.7 |
| 20260506090018 | 11 | 246 | 4.8 | 12.9 | 0.00 | 0.03 | 0.03 | 85 | 1017.7 |
| 20260506085510 | 11 | 223 | 6.4 | 14.5 | 0.00 | 0.03 | 0.03 | 85 | 1017.8 |
| 20260506085008 | 11 | 222 | 6.4 | 14.5 | 0.00 | 0.03 | 0.03 | 85 | 1017.7 |
| 20260506084520 | 11 | 226 | 8.0 | 12.9 | 0.00 | 0.03 | 0.03 | 85 | 1017.6 |
| 20260506084009 | 11 | 225 | 4.8 | 12.9 | 0.00 | 0.03 | 0.03 | 85 | 1017.6 |
| 20260506083509 | 11 | 247 | 4.8 | 12.9 | 0.00 | 0.03 | 0.03 | 85 | 1017.5 |
| 20260506083020 | 11 | 225 | 4.8 | 11.3 | 0.00 | 0.03 | 0.03 | 85 | 1017.6 |
| 20260506082509 | 11 | 215 | 4.8 | 11.3 | 0.00 | 0.03 | 0.03 | 85 | 1017.6 |
| 20260506082009 | 11 | 188 | 3.2 | 8.0 | 0.00 | 0.03 | 0.03 | 85 | 1017.5 |
| 20260506081526 | 11 | 206 | 3.2 | 8.0 | 0.03 | 0.03 | 0.03 | 85 | 1017.5 |
| 20260506081012 | 11 | 219 | 4.8 | 8.0 | 0.03 | 0.03 | 0.03 | 85 | 1017.5 |
| 20260506080510 | 11 | 209 | 3.2 | 8.0 | 0.03 | 0.03 | 0.03 | 85 | 1017.5 |
| 20260506073508 | 11 | 194 | 1.6 | 3.2 | 0.03 | 0.03 | 0.03 | 84 | 1017.3 |
| 20260506073022 | 11 | 217 | 1.6 | 3.2 | 0.03 | 0.03 | 0.03 | 84 | 1017.2 |
| 20260506072513 | 11 | 240 | 1.6 | 3.2 | 0.03 | 0.03 | 0.03 | 84 | 1017.2 |
| 20260506072014 | 11 | 220 | 0.0 | 3.2 | 0.03 | 0.03 | 0.03 | 84 | 1017.1 |
| 20260506071523 | 12 | 246 | 1.6 | 4.8 | 0.00 | 0.00 | 0.00 | 83 | 1017.1 |
| 20260506071009 | 12 | 252 | 1.6 | 4.8 | 0.00 | 0.00 | 0.00 | 83 | 1017.1 |
| 20260506070509 | 12 | 239 | 3.2 | 4.8 | 0.00 | 0.00 | 0.00 | 83 | 1017.0 |
| 20260506062508 | 12 | 224 | 4.8 | 9.7 | 0.00 | 0.00 | 0.00 | 81 | 1016.5 |
| 20260506062010 | 12 | 249 | 4.8 | 11.3 | 0.00 | 0.00 | 0.00 | 81 | 1016.6 |
| 20260506061542 | 12 | 223 | 4.8 | 11.3 | 0.00 | 0.00 | 0.00 | 80 | 1016.6 |
| 20260506061010 | 12 | 221 | 1.6 | 8.0 | 0.00 | 0.00 | 0.00 | 80 | 1016.5 |
| 20260506060510 | 12 | 232 | 3.2 | 8.0 | 0.00 | 0.00 | 0.00 | 80 | 1016.4 |
| 20260506051009 | 13 | 223 | 4.8 | 12.9 | 0.00 | 0.00 | 0.00 | 78 | 1016.0 |
| 20260506050520 | 13 | 223 | 4.8 | 12.9 | 0.00 | 0.00 | 0.00 | 77 | 1015.9 |
| 20260506045009 | 14 | 234 | 6.4 | 12.9 | 0.00 | 0.00 | 0.00 | 76 | 1015.9 |
| 20260506044530 | 14 | 242 | 6.4 | 14.5 | 0.00 | 0.00 | 0.00 | 76 | 1015.9 |
| 20260506044010 | 15 | 250 | 8.0 | 14.5 | 0.00 | 0.00 | 0.00 | 76 | 1015.9 |
| 20260506043510 | 14 | 244 | 8.0 | 11.3 | 0.00 | 0.00 | 0.00 | 76 | 1015.8 |
| 20260506043024 | 15 | 229 | 3.2 | 11.3 | 0.00 | 0.00 | 0.00 | 76 | 1015.8 |
| 20260506042507 | 15 | 248 | 6.4 | 12.9 | 0.00 | 0.00 | 0.00 | 76 | 1015.8 |
| 20260506042008 | 15 | 210 | 6.4 | 12.9 | 0.00 | 0.00 | 0.00 | 76 | 1015.8 |
| 20260506041524 | 15 | 254 | 1.6 | 4.8 | 0.00 | 0.00 | 0.00 | 77 | 1015.7 |
| 20260506041007 | 15 | 281 | 3.2 | 6.4 | 0.00 | 0.00 | 0.00 | 76 | 1015.7 |
| 20260506040512 | 15 | 211 | 3.2 | 6.4 | 0.00 | 0.00 | 0.00 | 76 | 1015.6 |
| 20260506040022 | 15 | 235 | 3.2 | 6.4 | 0.00 | 0.00 | 0.00 | 76 | 1015.6 |
| 20260506035510 | 15 | 254 | 3.2 | 4.8 | 0.00 | 0.00 | 0.00 | 75 | 1015.6 |
| 20260506035016 | 15 | 251 | 3.2 | 4.8 | 0.00 | 0.00 | 0.00 | 75 | 1015.5 |
| 20260506034528 | 15 | 238 | 1.6 | 6.4 | 0.00 | 0.00 | 0.00 | 74 | 1015.5 |
| 20260506034007 | 16 | 243 | 3.2 | 6.4 | 0.00 | 0.00 | 0.00 | 74 | 1015.4 |
| 20260506033508 | 16 | 239 | 4.8 | 9.7 | 0.00 | 0.00 | 0.00 | 73 | 1015.4 |
| 20260506033027 | 16 | 248 | 4.8 | 9.7 | 0.00 | 0.00 | 0.00 | 73 | 1015.3 |
| 20260506032511 | 16 | 226 | 4.8 | 8.0 | 0.00 | 0.00 | 0.00 | 73 | 1015.1 |
| 20260506032010 | 16 | 252 | 3.2 | 8.0 | 0.00 | 0.00 | 0.00 | 72 | 1015.1 |
| 20260506031519 | 16 | 265 | 4.8 | 8.0 | 0.00 | 0.00 | 0.00 | 72 | 1015.1 |
| 20260506031011 | 16 | 242 | 3.2 | 8.0 | 0.00 | 0.00 | 0.00 | 72 | 1015.1 |
| 20260506030510 | 16 | 248 | 3.2 | 6.4 | 0.00 | 0.00 | 0.00 | 71 | 1015.1 |
| 20260506030027 | 16 | 268 | 1.6 | 6.4 | 0.00 | 0.00 | 0.00 | 71 | 1015.0 |
| 20260506025509 | 16 | 248 | 3.2 | 8.0 | 0.00 | 0.00 | 0.00 | 71 | 1015.0 |
| 20260506025011 | 17 | 241 | 3.2 | 8.0 | 0.00 | 0.00 | 0.00 | 70 | 1015.0 |
| 20260506024538 | 17 | 275 | 1.6 | 6.4 | 0.00 | 0.00 | 0.00 | 71 | 1015.0 |
| 20260506024014 | 17 | 223 | 3.2 | 6.4 | 0.00 | 0.00 | 0.00 | 69 | 1015.0 |
| 20260506023513 | 17 | 220 | 3.2 | 6.4 | 0.00 | 0.00 | 0.00 | 69 | 1015.0 |
| 20260506023026 | 17 | 262 | 1.6 | 6.4 | 0.00 | 0.00 | 0.00 | 69 | 1015.0 |
| 20260506022515 | 17 | 220 | 3.2 | 6.4 | 0.00 | 0.00 | 0.00 | 70 | 1015.1 |
| 20260506022008 | 17 | 243 | 3.2 | 4.8 | 0.00 | 0.00 | 0.00 | 69 | 1015.1 |
| 20260506021531 | 17 | 271 | 3.2 | 9.7 | 0.00 | 0.00 | 0.00 | 69 | 1015.2 |
| 20260506021012 | 17 | 271 | 4.8 | 9.7 | 0.00 | 0.00 | 0.00 | 69 | 1015.1 |
| 20260506020509 | 17 | 267 | 3.2 | 4.8 | 0.00 | 0.00 | 0.00 | 69 | 1015.2 |
| 20260506020021 | 17 | 286 | 3.2 | 9.7 | 0.00 | 0.00 | 0.00 | 68 | 1015.2 |
| 20260506015509 | 17 | 275 | 1.6 | 9.7 | 0.00 | 0.00 | 0.00 | 69 | 1015.1 |
| 20260506015009 | 17 | 257 | 3.2 | 9.7 | 0.00 | 0.00 | 0.00 | 70 | 1015.2 |
| 20260506014530 | 17 | 257 | 3.2 | 9.7 | 0.00 | 0.00 | 0.00 | 69 | 1015.1 |
| 20260506014014 | 17 | 260 | 3.2 | 9.7 | 0.00 | 0.00 | 0.00 | 70 | 1015.1 |
| 20260506013512 | 17 | 267 | 3.2 | 9.7 | 0.00 | 0.00 | 0.00 | 69 | 1015.2 |
| 20260506013025 | 17 | 257 | 3.2 | 9.7 | 0.00 | 0.00 | 0.00 | 69 | 1015.1 |
| 20260506012507 | 17 | 284 | 3.2 | 9.7 | 0.00 | 0.00 | 0.00 | 69 | 1015.1 |
| 20260506012007 | 17 | 269 | 4.8 | 9.7 | 0.00 | 0.00 | 0.00 | 69 | 1015.2 |
| 20260506011515 | 17 | 288 | 4.8 | 9.7 | 0.00 | 0.00 | 0.00 | 69 | 1015.2 |
| 20260506011010 | 17 | 287 | 3.2 | 9.7 | 0.00 | 0.00 | 0.00 | 69 | 1015.2 |
| 20260506010507 | 17 | 273 | 3.2 | 6.4 | 0.00 | 0.00 | 0.00 | 69 | 1015.3 |
| 20260506010019 | 17 | 265 | 3.2 | 6.4 | 0.00 | 0.00 | 0.00 | 68 | 1015.3 |
| 20260506005509 | 17 | 290 | 1.6 | 6.4 | 0.00 | 0.00 | 0.00 | 71 | 1015.2 |
| 20260506005007 | 16 | 281 | 3.2 | 6.4 | 0.00 | 0.00 | 0.00 | 71 | 1015.2 |
| 20260506004506 | 16 | 247 | 3.2 | 9.7 | 0.00 | 0.00 | 0.00 | 71 | 1015.2 |
| 20260506004004 | 16 | 288 | 4.8 | 9.7 | 0.00 | 0.00 | 0.00 | 70 | 1015.2 |
| 20260506003504 | 16 | 279 | 3.2 | 9.7 | 0.00 | 0.00 | 0.00 | 71 | 1015.2 |
| 20260506003008 | 16 | 243 | 4.8 | 11.3 | 0.00 | 0.00 | 0.00 | 71 | 1015.2 |
| 20260506002506 | 16 | 291 | 4.8 | 11.3 | 0.00 | 0.00 | 0.00 | 73 | 1015.3 |
| 20260506002005 | 16 | 272 | 3.2 | 11.3 | 0.00 | 0.00 | 0.00 | 72 | 1015.3 |
| 20260506001512 | 16 | 281 | 4.8 | 11.3 | 0.00 | 0.00 | 0.00 | 71 | 1015.4 |
| 20260506001006 | 16 | 281 | 4.8 | 11.3 | 0.00 | 0.00 | 0.00 | 72 | 1015.3 |
| 20260506000508 | 16 | 287 | 3.2 | 11.3 | 0.00 | 0.00 | 0.00 | 72 | 1015.4 |
| 20260506000016 | 16 | 286 | 4.8 | 12.9 | 0.00 | 0.00 | 0.00 | 72 | 1015.4 |
| 20260505235507 | 16 | 266 | 4.8 | 12.9 | 0.00 | 0.00 | 0.00 | 73 | 1015.4 |
| 20260505235010 | 16 | 272 | 8.0 | 12.9 | 0.00 | 0.00 | 0.00 | 70 | 1015.4 |
| 20260505234522 | 16 | 337 | 4.8 | 11.3 | 0.00 | 0.00 | 0.00 | 72 | 1015.6 |
| 20260505234013 | 16 | 275 | 4.8 | 11.3 | 0.00 | 0.00 | 0.00 | 73 | 1015.7 |
| 20260505233503 | 16 | 271 | 6.4 | 11.3 | 0.00 | 0.00 | 0.00 | 72 | 1015.8 |
| 20260505233006 | 16 | 260 | 4.8 | 11.3 | 0.00 | 0.00 | 0.00 | 74 | 1015.8 |
| 20260505232507 | 16 | 286 | 6.4 | 11.3 | 0.00 | 0.00 | 0.00 | 73 | 1015.9 |
| 20260505232006 | 16 | 269 | 6.4 | 12.9 | 0.00 | 0.00 | 0.00 | 73 | 1015.9 |
| 20260505231510 | 16 | 276 | 4.8 | 14.5 | 0.00 | 0.00 | 0.00 | 75 | 1015.9 |
| 20260505231008 | 16 | 255 | 8.0 | 14.5 | 0.00 | 0.00 | 0.00 | 72 | 1015.9 |
| 20260505230505 | 16 | 276 | 4.8 | 12.9 | 0.00 | 0.00 | 0.00 | 73 | 1016.0 |
| 20260505230018 | 15 | 260 | 4.8 | 12.9 | 0.00 | 0.00 | 0.00 | 77 | 1016.1 |
| 20260505225508 | 15 | 276 | 6.4 | 11.3 | 0.00 | 0.00 | 0.00 | 76 | 1016.1 |
| 20260505225009 | 15 | 281 | 6.4 | 11.3 | 0.00 | 0.00 | 0.00 | 75 | 1016.1 |
| 20260505224520 | 16 | 273 | 4.8 | 14.5 | 0.00 | 0.00 | 0.00 | 73 | 1016.2 |
| 20260505224010 | 15 | 275 | 6.4 | 14.5 | 0.00 | 0.00 | 0.00 | 75 | 1016.2 |
| 20260505223512 | 15 | 270 | 8.0 | 12.9 | 0.00 | 0.00 | 0.00 | 75 | 1016.2 |
| 20260505223027 | 15 | 273 | 6.4 | 11.3 | 0.00 | 0.00 | 0.00 | 77 | 1016.3 |
| 20260505222504 | 15 | 254 | 6.4 | 11.3 | 0.00 | 0.00 | 0.00 | 77 | 1016.3 |
| 20260505222005 | 15 | 273 | 4.8 | 9.7 | 0.00 | 0.00 | 0.00 | 76 | 1016.3 |
| 20260505221508 | 15 | 259 | 4.8 | 12.9 | 0.00 | 0.00 | 0.00 | 76 | 1016.4 |
| 20260505221004 | 15 | 283 | 6.4 | 12.9 | 0.00 | 0.00 | 0.00 | 76 | 1016.4 |
| 20260505220507 | 15 | 243 | 3.2 | 11.3 | 0.00 | 0.00 | 0.00 | 77 | 1016.5 |
| 20260505220014 | 15 | 285 | 4.8 | 11.3 | 0.00 | 0.00 | 0.00 | 76 | 1016.5 |
| 20260505215506 | 15 | 280 | 3.2 | 11.3 | 0.00 | 0.00 | 0.00 | 77 | 1016.5 |
| 20260505215006 | 15 | 279 | 4.8 | 14.5 | 0.00 | 0.00 | 0.00 | 77 | 1016.5 |
| 20260505214524 | 14 | 267 | 6.4 | 14.5 | 0.00 | 0.00 | 0.00 | 78 | 1016.6 |
| 20260505214008 | 14 | 277 | 3.2 | 11.3 | 0.00 | 0.00 | 0.00 | 78 | 1016.6 |
| 20260505213507 | 15 | 263 | 4.8 | 12.9 | 0.00 | 0.00 | 0.00 | 78 | 1016.7 |
| 20260505213024 | 14 | 278 | 6.4 | 12.9 | 0.00 | 0.00 | 0.00 | 79 | 1016.7 |
| 20260505212510 | 14 | 261 | 8.0 | 11.3 | 0.00 | 0.00 | 0.00 | 78 | 1016.6 |
| 20260505212011 | 15 | 295 | 4.8 | 11.3 | 0.00 | 0.00 | 0.00 | 78 | 1016.7 |
| 20260505211508 | 14 | 256 | 6.4 | 14.5 | 0.00 | 0.00 | 0.00 | 78 | 1016.7 |
| 20260505211004 | 14 | 279 | 4.8 | 14.5 | 0.00 | 0.00 | 0.00 | 78 | 1016.7 |
| 20260505210508 | 14 | 271 | 6.4 | 14.5 | 0.00 | 0.00 | 0.00 | 78 | 1016.7 |
| 20260505210012 | 15 | 260 | 6.4 | 12.9 | 0.00 | 0.00 | 0.00 | 77 | 1016.7 |
| 20260505205505 | 15 | 264 | 4.8 | 11.3 | 0.00 | 0.00 | 0.00 | 77 | 1016.7 |
| 20260505205007 | 15 | 261 | 3.2 | 9.7 | 0.00 | 0.00 | 0.00 | 78 | 1016.8 |
| 20260505204517 | 14 | 239 | 3.2 | 9.7 | 0.00 | 0.00 | 0.00 | 79 | 1016.8 |
| 20260505204009 | 14 | 266 | 4.8 | 12.9 | 0.00 | 0.00 | 0.00 | 79 | 1016.8 |
| 20260505203515 | 14 | 267 | 6.4 | 12.9 | 0.00 | 0.00 | 0.00 | 78 | 1016.8 |
| 20260505203022 | 14 | 273 | 6.4 | 12.9 | 0.00 | 0.00 | 0.00 | 79 | 1016.8 |
| 20260505202508 | 14 | 259 | 6.4 | 12.9 | 0.00 | 0.00 | 0.00 | 79 | 1016.8 |
| 20260505202011 | 14 | 266 | 4.8 | 12.9 | 0.00 | 0.00 | 0.00 | 80 | 1016.8 |
| 20260505201524 | 13 | 240 | 3.2 | 12.9 | 0.00 | 0.00 | 0.00 | 79 | 1016.8 |
| 20260505201012 | 13 | 272 | 6.4 | 11.3 | 0.00 | 0.00 | 0.00 | 80 | 1016.8 |
| 20260505200505 | 13 | 263 | 4.8 | 11.3 | 0.00 | 0.00 | 0.00 | 80 | 1016.7 |
| 20260505200008 | 13 | 273 | 4.8 | 12.9 | 0.00 | 0.00 | 0.00 | 79 | 1016.8 |
| 20260505195505 | 14 | 277 | 4.8 | 12.9 | 0.00 | 0.00 | 0.00 | 79 | 1016.7 |
| 20260505195006 | 13 | 273 | 6.4 | 11.3 | 0.00 | 0.00 | 0.00 | 79 | 1016.8 |
| 20260505194516 | 13 | 267 | 3.2 | 11.3 | 0.00 | 0.00 | 0.00 | 79 | 1016.8 |
| 20260505194009 | 14 | 227 | 3.2 | 9.7 | 0.00 | 0.00 | 0.00 | 79 | 1016.8 |
| 20260505193511 | 14 | 273 | 3.2 | 9.7 | 0.00 | 0.00 | 0.00 | 79 | 1016.8 |
| 20260505193018 | 13 | 295 | 1.6 | 11.3 | 0.00 | 0.00 | 0.00 | 81 | 1016.8 |
| 20260505192516 | 13 | 268 | 4.8 | 11.3 | 0.00 | 0.00 | 0.00 | 80 | 1016.7 |
| 20260505192009 | 13 | 281 | 3.2 | 9.7 | 0.00 | 0.00 | 0.00 | 81 | 1016.7 |
| 20260505191526 | 13 | 265 | 3.2 | 9.7 | 0.00 | 0.00 | 0.00 | 80 | 1016.7 |
| 20260505191007 | 13 | 283 | 3.2 | 11.3 | 0.00 | 0.00 | 0.00 | 80 | 1016.7 |
| 20260505190506 | 13 | 267 | 3.2 | 11.3 | 0.00 | 0.00 | 0.00 | 81 | 1016.7 |
| 20260505190029 | 13 | 269 | 4.8 | 11.3 | 0.00 | 0.00 | 0.00 | 81 | 1016.7 |
| 20260505185507 | 13 | 280 | 4.8 | 11.3 | 0.00 | 0.00 | 0.00 | 81 | 1016.7 |
| 20260505185010 | 13 | 275 | 4.8 | 11.3 | 0.00 | 0.00 | 0.00 | 81 | 1016.7 |
| 20260505184514 | 13 | 254 | 3.2 | 11.3 | 0.00 | 0.00 | 0.00 | 81 | 1016.7 |
| 20260505184006 | 13 | 245 | 3.2 | 11.3 | 0.00 | 0.00 | 0.00 | 82 | 1016.8 |
| 20260505183507 | 13 | 272 | 1.6 | 6.4 | 0.00 | 0.00 | 0.00 | 81 | 1016.8 |
| 20260505183027 | 13 | 261 | 3.2 | 6.4 | 0.00 | 0.00 | 0.00 | 81 | 1016.7 |
| 20260505182516 | 13 | 271 | 1.6 | 6.4 | 0.00 | 0.00 | 0.00 | 82 | 1016.7 |
| 20260505182014 | 13 | 242 | 3.2 | 9.7 | 0.00 | 0.00 | 0.00 | 82 | 1016.7 |
| 20260505181524 | 13 | 256 | 3.2 | 11.3 | 0.00 | 0.00 | 0.00 | 81 | 1016.7 |
| 20260505181009 | 13 | 263 | 4.8 | 11.3 | 0.00 | 0.00 | 0.00 | 81 | 1016.6 |
| 20260505180508 | 13 | 234 | 3.2 | 9.7 | 0.00 | 0.00 | 0.00 | 81 | 1016.7 |
| 20260505180026 | 13 | 231 | 4.8 | 9.7 | 0.00 | 0.00 | 0.00 | 80 | 1016.7 |
| 20260505175511 | 13 | 225 | 4.8 | 9.7 | 0.00 | 0.00 | 0.00 | 81 | 1016.6 |
| 20260505175012 | 13 | 240 | 6.4 | 9.7 | 0.00 | 0.00 | 0.00 | 80 | 1016.6 |
| 20260505174512 | 13 | 263 | 4.8 | 9.7 | 0.00 | 0.00 | 0.00 | 81 | 1016.6 |
| 20260505174006 | 13 | 257 | 4.8 | 9.7 | 0.00 | 0.00 | 0.00 | 81 | 1016.6 |
| 20260505173509 | 13 | 240 | 4.8 | 11.3 | 0.00 | 0.00 | 0.00 | 81 | 1016.6 |
| 20260505173017 | 13 | 228 | 4.8 | 11.3 | 0.00 | 0.00 | 0.00 | 81 | 1016.5 |
| 20260505172505 | 13 | 275 | 3.2 | 8.0 | 0.00 | 0.00 | 0.00 | 82 | 1016.5 |
| 20260505172009 | 12 | 270 | 3.2 | 8.0 | 0.00 | 0.00 | 0.00 | 82 | 1016.5 |
| 20260505171521 | 12 | 281 | 3.2 | 4.8 | 0.00 | 0.00 | 0.00 | 82 | 1016.5 |
| 20260505171009 | 12 | 274 | 3.2 | 4.8 | 0.00 | 0.00 | 0.00 | 82 | 1016.4 |
| 20260505170509 | 12 | 283 | 3.2 | 6.4 | 0.00 | 0.00 | 0.00 | 83 | 1016.3 |
| 20260505170028 | 12 | 273 | 3.2 | 6.4 | 0.00 | 0.00 | 0.00 | 83 | 1016.4 |
| 20260505165509 | 12 | 267 | 3.2 | 6.4 | 0.00 | 0.00 | 0.00 | 83 | 1016.4 |
| 20260505165008 | 12 | 217 | 1.6 | 6.4 | 0.00 | 0.00 | 0.00 | 83 | 1016.3 |
| 20260505164526 | 12 | 274 | 3.2 | 6.4 | 0.00 | 0.00 | 0.00 | 83 | 1016.3 |
| 20260505164014 | 12 | 271 | 3.2 | 6.4 | 0.00 | 0.00 | 0.00 | 82 | 1016.3 |
| 20260505163507 | 12 | 239 | 3.2 | 6.4 | 0.00 | 0.00 | 0.00 | 82 | 1016.3 |
| 20260505163017 | 12 | 237 | 3.2 | 6.4 | 0.00 | 0.00 | 0.00 | 83 | 1016.2 |
| 20260505162505 | 12 | 227 | 3.2 | 6.4 | 0.00 | 0.00 | 0.00 | 83 | 1016.2 |
| 20260505162007 | 12 | 253 | 1.6 | 4.8 | 0.00 | 0.00 | 0.00 | 83 | 1016.2 |
| 20260505161519 | 12 | 254 | 3.2 | 6.4 | 0.00 | 0.00 | 0.00 | 82 | 1016.2 |